This is the latest recevied weather packets stored in our database for station/object wb2ifs-13. If no packets are shown the sender has not sent any weather packets the latest 1 day(s).
| Time | Temp. | Humidity | Pressure | Rain* | Wind** | Luminosity | Snow |
|---|---|---|---|---|---|---|---|
| 1836274674 | 20° C | 95% | 1018.6 hPa | 0 mm | 0 m/s | - | - |
| 1778039100 | 22.22° C | 55% | 1012.3 hPa | 0 mm | 0.89 m/s, 130° | - | - |
| 1778038199 | 22.22° C | 54% | 1012.4 hPa | 0 mm | 0.89 m/s, 238° | - | - |
| 1778037300 | 22.78° C | 53% | 1012 hPa | 0 mm | 1.79 m/s, 105° | - | - |
| 1778036402 | 22.78° C | 52% | 1012 hPa | 0 mm | 1.34 m/s, 100° | - | - |
| 1778035499 | 22.78° C | 52% | 1012.2 hPa | 0 mm | 1.34 m/s, 23° | - | - |
| 1778034599 | 23.33° C | 51% | 1012.4 hPa | 0 mm | 1.34 m/s, 169° | - | - |
| 1778033700 | 23.33° C | 50% | 1012.4 hPa | 0 mm | 1.34 m/s, 84° | - | - |
| 1778032799 | 23.33° C | 48% | 1012.3 hPa | 0 mm | 0.89 m/s, 154° | - | - |
| 1778031900 | 23.33° C | 47% | 1012 hPa | 0 mm | 1.34 m/s, 66° | - | - |
| 1778031001 | 23.89° C | 44% | 1011.9 hPa | 0 mm | 0.89 m/s, 340° | - | - |
| 1778030100 | 23.89° C | 42% | 1011.7 hPa | 0 mm | 1.34 m/s, 198° | - | - |
| 1778029199 | 24.44° C | 41% | 1011.6 hPa | 0 mm | 1.34 m/s, 128° | - | - |
| 1778028299 | 24.44° C | 41% | 1011.6 hPa | 0 mm | 0.89 m/s, 138° | - | - |
| 1778027399 | 24.44° C | 41% | 1011.5 hPa | 0 mm | 0.89 m/s, 204° | - | - |
| 1778026498 | 25° C | 40% | 1011.3 hPa | 0 mm | 0.89 m/s, 68° | - | - |
| 1778025601 | 25.56° C | 39% | 1011.1 hPa | 0 mm | 1.34 m/s, 304° | - | - |
| 1778024703 | 25.56° C | 38% | 1011 hPa | 0 mm | 0.89 m/s, 153° | - | - |
| 1778023801 | 26.11° C | 36% | 1011 hPa | 0 mm | 1.34 m/s, 225° | - | - |
| 1778022899 | 26.67° C | 36% | 1011.1 hPa | 0 mm | 0.89 m/s, 304° | - | - |
| 1778022004 | 26.67° C | 34% | 1011 hPa | 0 mm | 0.89 m/s, 115° | - | - |
| 1778021100 | 26.67° C | 34% | 1011.1 hPa | 0 mm | 0.89 m/s, 84° | - | - |
| 1778020199 | 27.22° C | 33% | 1011.1 hPa | 0 mm | 1.34 m/s, 77° | - | - |
| 1778019299 | 27.78° C | 32% | 1011 hPa | 0 mm | 1.79 m/s, 213° | - | - |
| 1778018403 | 27.78° C | 33% | 1011 hPa | 0 mm | 1.79 m/s, 89° | - | - |
* Rain latest hour (hover to see other rain measurements)
** Current wind speed in m/s (hover to see current wind gust speed)